Regional Weather Roundup
Issued by NWS Sterling, VA

Home | Current Version | Previous Version | Graphics & Text | Print | Product List | Glossary On
Versions: 1 2 3 4 5 6 7 8 9 10 11 12 13 14 15 16 17 18 19 20 21 22 23 24 25 26 27 28 29 30 31 32 33 34 35 36 37 38 39 40 41 42 43 44 45 46 47 48 49 50
000
ASUS41 KLWX 020910
RWRLWX

REGIONAL WEATHER ROUNDUP
NATIONAL WEATHER SERVICE BALTIMORE MD/WASHINGTON DC
500 AM EDT SUN AUG 02 2015

Note: "FAIR" indicates few or no clouds below 12,000 feet
with no significant weather and/or obstructions to visibility.
 TC=TEMPERATURE CELSIUS

 * =Non NWS site. Station does not report precipitation (e.g. rain,
    snow, etc.), thunder, or fog.

DCZ001-MDZ009-015-VAZ040>042-051-053>054-021000-
WASHINGTON METRO

CITY           SKY/WX    TMP DP  RH WIND       PRES   REMARKS
WASHINGTON NAT PTCLDY    74  59  59 N5        29.91F
DULLES         PTCLDY    62  58  86 CALM      29.92F
ANDREWS AFB    CLEAR     64  60  86 CALM      29.90
LEESBURG*      PTCLDY    63  63 100 W3        29.94S
MANASSAS*      CLEAR     63  63 100 CALM      29.93S
GAITHERSBURG*  PTCLDY    63  57  82 CALM      29.96S

$$

MDZ006>007-011-014-021000-
BALTIMORE METRO

CITY           SKY/WX    TMP DP  RH WIND       PRES   REMARKS
BWI AIRPORT    PTCLDY    65  60  84 W3        29.91S
MD SCIENCE CTR   N/A     75  58  55 MISG      29.91S
MARTIN STATE   PTCLDY    70  64  83 W5        29.92S
ANNAPOLIS      PTCLDY    73  65  75 NW5       29.89F
FORT MEADE*    PTCLDY    61  59  94 CALM      29.93F

$$

MDZ012-015-019>023-021000-
MARYLAND EASTERN SHORE

CITY           SKY/WX    TMP DP  RH WIND       PRES   REMARKS
OCEAN CITY     CLEAR     66  63  90 N3        29.88S
SALISBURY      CLEAR     68  65  90 NW3       29.88S
BAY BRIDGE AP*   N/A     73  64  73 CALM      29.90S
CAMBRIDGE*     CLEAR     72  68  88 CALM      29.89S
EASTON*        CLEAR     69  69 100 CALM      29.93S

$$

MDZ017>025-021000-
SOUTHERN MARYLAND

CITY           SKY/WX    TMP DP  RH WIND       PRES   REMARKS
PATUXENT RIVER PTCLDY    74  63  68 NW10      29.89S
ST INIGOES     CLEAR     69  63  81 CALM      29.88S
LEONARDTOWN*   CLEAR     66  61  82 CALM      29.91S

$$

MDZ003>005-021000-
NORTH CENTRAL MARYLAND

CITY           SKY/WX    TMP DP  RH WIND       PRES   REMARKS
FREDERICK*     CLEAR     61  61 100 CALM      29.95S
HAGERSTOWN APT CLEAR     64  57  78 S3        29.94S
WESTMINSTER*   CLEAR     64  59  82 CALM      29.94S

$$

MDZ501>502-021000-
WESTERN MARYLAND

CITY           SKY/WX    TMP DP  RH WIND       PRES   REMARKS
OAKLAND*       CLEAR     59 N/A N/A SW5       30.05R
CUMBERLAND*    CLEAR     59  59 100 CALM      30.00R

$$

VAZ025>031-021000-
SHENANDOAH VALLEY

CITY           SKY/WX    TMP DP  RH WIND       PRES   REMARKS
WINCHESTER*    CLEAR     63  55  77 CALM      29.95S
FRONT ROYAL*   FAIR      61  55  82 CALM      29.95S
LURAY*         FAIR      61  61 100 SW3       29.98S
NEW MARKET*    FAIR      55  55  98 CALM      29.98S
STAUNTON*      CLEAR     58  55  90 CALM      30.02R
WAYNESBORO*    FAIR      57  54  90 SW3       30.00S

$$

WVZ021-048>050-054>055-021000-
EASTERN WEST VIRGINIA PANHANDLE

CITY           SKY/WX    TMP DP  RH WIND       PRES   REMARKS
MARTINSBURG    CLEAR     60  55  83 SW3       29.95R
PETERSBURG*    CLEAR    N/A N/A N/A CALM      29.99F

$$

VAZ036>039-050-021000-
CENTRAL FOOTHILLS

CITY           SKY/WX    TMP DP  RH WIND       PRES   REMARKS
CHARLOTTESVILL CLEAR     65  58  78 W7        29.95R
CULPEPER*      MOCLDY    60  60  99 CALM      29.94S FOG
ORANGE*        CLEAR     61  61 100 CALM      29.95S
GORDONSVILLE*  FAIR      59  59 100 CALM      29.94R
WARRENTON*     FOG       59  59 100 CALM      29.93R VSB 3/4

$$

VAZ055>057-021000-
NORTH AND CENTRAL PIEDMONT

CITY           SKY/WX    TMP DP  RH WIND       PRES   REMARKS
FREDERICKSBRG* PTCLDY    67  62  84 CALM      29.91S
STAFFORD*      CLEAR     61  58  91 CALM      29.96S

$$

NCZ024-NYZ072-PAZ021-071-VAZ022-071-021000-
OTHER REGIONAL OBSERVATIONS

CITY           SKY/WX    TMP DP  RH WIND       PRES   REMARKS
NEW YORK CITY  CLEAR     74  56  53 CALM      29.90S
PHILADELPHIA   PTCLDY    72  58  61 NW7       29.90S
PITTSBURGH     PTCLDY    64  56  75 W6        29.95F
ROANOKE        PTCLDY    61  57  87 W3        30.02S
RICHMOND       PTCLDY    72  60  66 N6        29.91S
RALEIGH        PTCLDY    68  61  78 CALM      29.93S

$$

ANZ530>537-021000-
MARINE OBSERVATIONS

STATION/POSITION TIME  TEMP    WIND        PRES
                       AIR SEA DIR/SP/G
                 (UTC) (F)     (DEG/KT/KT) (MB)
THOMAS PT LIGHT  NOT AVBL
BALT KEY BRIDGE  0800   76     290/  4/  5 1012.4F
COVE POINT       0800   80      10/  6/ 12 1012.9S
LEWISETTA        0800   80 84   10/  7/ 10 1011.7F
SOLOMONS ISLAND  0800      83                N/A
PINEY POINT      0800           20/  9/ 11   N/A

$$



USA.gov is the U.S. government's official web portal to all federal, state and local government web resources and services.